Lafayette, CO

6:22 PM MST on February 05, 2016 (GMT -0700)
Erie Municipal Airport

Weather History for KEIK - January, 2013

Change the Weather History Date:

Thursday, January 24, 2013

  Actual Average (KBDU) Record (KBDU)
Temperature  
Mean Temperature 40 °F -  
Max Temperature 64 °F - 59 °F (2014)
Min Temperature 17 °F - 17 °F (2014)
Degree Days  
Heating Degree Days 24    
Month to date heating degree days  
Cooling Degree Days 0    
Month to date cooling degree days  
Moisture  
Dew Point 16 °F    
Average Humidity 43    
Maximum Humidity 76    
Minimum Humidity 12    
Precipitation  
Precipitation 0.00 in - 0.00 in (2016)
Sea Level Pressure  
Sea Level Pressure 30.04 in    
Wind  
Wind Speed 4 mph (West)    
Max Wind Speed 17 mph    
Max Gust Speed 34 mph    
Visibility 10 miles    
Events      
T = Trace of Precipitation, MM = Missing Value Source: NWS Daily Summary

Daily Weather History Graph

Daily Weather History Graph

Search for Another Location

Airport or City:

Trip Planner

Search our weather history database for the weather conditions in past years. The results will help you decide how hot, cold, wet, or windy it might be!

Date:

Astronomy

Jan. 24, 2013 Rise Set
Actual Time 7:15 AM MST 5:10 PM MST
Civil Twilight 6:45 AM MST 5:39 PM MST
Nautical Twilight 6:13 AM MST 6:12 PM MST
Astronomical Twilight 5:40 AM MST 6:44 PM MST
Moon 3:14 PM MST (1/24) 5:14 AM MST (1/24)
Length of Visible Light 10h 53m
Length of Day
9h 55m
Waxing Gibbous, 95% of the Moon is Illuminated
Jan 24
Waxing Gibbous
Jan 26
Full
Feb 3
Last Quarter
Feb 10
New
Feb 17
First Quarter

Hourly Weather History & Observations

Time (MST) Temp. Windchill Dew Point Humidity Pressure Visibility Wind Dir Wind Speed Gust Speed Precip Events Conditions
12:16 AM 33.3 °F 27.9 °F 12.9 °F 43% 30.14 in 10.0 mi North 5.8 mph - N/A   Clear
12:36 AM 32.0 °F - 13.8 °F 47% 30.13 in 10.0 mi Calm Calm - N/A   Clear
12:56 AM 31.8 °F - 13.6 °F 47% 30.13 in 10.0 mi Calm Calm - N/A   Clear
1:16 AM 31.1 °F 27.7 °F 14.0 °F 49% 30.13 in 10.0 mi WSW 3.5 mph - N/A   Clear
1:36 AM 30.0 °F 26.5 °F 13.8 °F 51% 30.11 in 10.0 mi West 3.5 mph - N/A   Clear
1:56 AM 29.3 °F - 14.2 °F 53% 30.10 in 10.0 mi Calm Calm - N/A   Clear
2:16 AM 27.3 °F 23.4 °F 13.6 °F 56% 30.11 in 10.0 mi NNE 3.5 mph - N/A   Clear
2:36 AM 25.3 °F 21.1 °F 13.3 °F 60% 30.11 in 10.0 mi SW 3.5 mph - N/A   Clear
2:56 AM 25.9 °F 20.3 °F 13.8 °F 60% 30.09 in 10.0 mi SW 4.6 mph - N/A   Clear
3:16 AM 23.2 °F - 12.4 °F 63% 30.08 in 10.0 mi Calm Calm - N/A   Clear
3:36 AM 24.1 °F - 12.7 °F 62% 30.07 in 10.0 mi Calm Calm - N/A   Clear
3:56 AM 21.9 °F 17.2 °F 12.6 °F 67% 30.08 in 10.0 mi SW 3.5 mph - N/A   Clear
4:16 AM 22.6 °F - 12.7 °F 66% 30.08 in 10.0 mi Calm Calm - N/A   Clear
4:36 AM 19.8 °F - 11.1 °F 69% 30.07 in 10.0 mi Calm Calm - N/A   Clear
4:56 AM 20.3 °F - 11.8 °F 70% 30.06 in 10.0 mi Calm Calm - N/A   Clear
5:16 AM 19.9 °F - 12.6 °F 73% 30.05 in 10.0 mi Calm Calm - N/A   Clear
5:36 AM 21.0 °F - 12.9 °F 71% 30.05 in 10.0 mi Calm Calm - N/A   Clear
5:56 AM 20.3 °F - 12.7 °F 73% 30.06 in 10.0 mi Calm Calm - N/A   Clear
6:16 AM 17.8 °F 8.5 °F 11.1 °F 75% 30.05 in 10.0 mi North 6.9 mph - N/A   Clear
6:36 AM 18.7 °F - 12.4 °F 76% 30.05 in 10.0 mi Calm Calm - N/A   Clear
6:56 AM 18.9 °F - 12.0 °F 75% 30.05 in 10.0 mi Calm Calm - N/A   Clear
7:16 AM 19.4 °F 14.3 °F 12.7 °F 75% 30.05 in 10.0 mi WNW 3.5 mph - N/A   Clear
7:36 AM 18.0 °F - 11.7 °F 76% 30.05 in 10.0 mi Calm Calm - N/A   Clear
7:56 AM 21.4 °F 16.6 °F 14.4 °F 74% 30.05 in 10.0 mi SW 3.5 mph - N/A   Clear
8:16 AM 26.4 °F 19.8 °F 15.4 °F 63% 30.04 in 10.0 mi South 5.8 mph - N/A   Clear
8:36 AM 33.3 °F 27.1 °F 15.3 °F 48% 30.05 in 10.0 mi NNE 6.9 mph - N/A   Clear
8:56 AM 35.1 °F 31.0 °F 15.6 °F 45% 30.05 in 10.0 mi SSE 4.6 mph - N/A   Clear
9:16 AM 36.3 °F 28.9 °F 15.4 °F 43% 30.05 in 10.0 mi North 10.4 mph - N/A   Clear
9:36 AM 36.0 °F - 15.4 °F 43% 30.04 in 10.0 mi Calm Calm - N/A   Clear
9:56 AM 37.6 °F - 15.3 °F 40% 30.04 in 10.0 mi Calm Calm - N/A   Clear
10:16 AM 39.4 °F - 15.3 °F 38% 30.03 in 10.0 mi Calm Calm - N/A   Clear
10:36 AM 41.0 °F - 14.7 °F 34% 30.03 in 10.0 mi Calm Calm - N/A   Clear
10:56 AM 44.4 °F 42.9 °F 14.7 °F 30% 30.02 in 10.0 mi South 3.5 mph - N/A   Clear
11:16 AM 48.6 °F - 14.2 °F 25% 30.01 in 10.0 mi Calm Calm - N/A   Clear
11:36 AM 56.7 °F - 9.0 °F 15% 30.00 in 10.0 mi WNW 5.8 mph - N/A   Clear
11:56 AM 61.9 °F - 7.9 °F 12% 30.00 in 10.0 mi WNW 10.4 mph 16.1 mph N/A   Clear
12:16 PM 59.0 °F - 7.5 °F 13% 29.99 in 10.0 mi North 4.6 mph - N/A   Clear
12:36 PM 53.1 °F - 11.5 °F 19% 29.97 in 10.0 mi NNE 6.9 mph - N/A   Clear
12:56 PM 53.1 °F - 9.7 °F 18% 29.96 in 10.0 mi NNE 3.5 mph - N/A   Clear
1:16 PM 54.7 °F - 7.5 °F 15% 29.96 in 10.0 mi Calm Calm - N/A   Clear
1:36 PM 54.9 °F - 8.8 °F 16% 29.94 in 10.0 mi North 3.5 mph - N/A   Clear
1:56 PM 59.2 °F - 7.9 °F 13% 29.94 in 10.0 mi Calm Calm - N/A   Clear
2:16 PM 62.2 °F - 8.6 °F 12% 29.95 in 10.0 mi West 3.5 mph - N/A   Clear
2:36 PM 64.6 °F - 12.4 °F 13% 29.96 in 10.0 mi WNW 16.1 mph 28.8 mph N/A   Clear
2:56 PM 62.6 °F - 13.8 °F 15% 29.96 in 10.0 mi WNW 15.0 mph 34.5 mph N/A   Clear
3:16 PM 63.3 °F - 14.0 °F 15% 29.95 in 10.0 mi West 8.1 mph 16.1 mph N/A   Clear
3:36 PM 63.3 °F - 16.5 °F 16% 29.97 in 10.0 mi West 16.1 mph 19.6 mph N/A   Clear
3:56 PM 61.7 °F - 19.8 °F 20% 29.97 in 10.0 mi West 17.3 mph 25.3 mph N/A   Clear
4:16 PM 59.2 °F - 20.8 °F 23% 29.98 in 10.0 mi WNW 12.7 mph 21.9 mph N/A   Scattered Clouds
4:36 PM 58.3 °F - 21.7 °F 24% 29.99 in 10.0 mi WNW 12.7 mph 21.9 mph N/A   Mostly Cloudy
4:56 PM 56.5 °F - 22.1 °F 26% 30.00 in 10.0 mi NW 4.6 mph - N/A   Mostly Cloudy
5:16 PM 54.7 °F - 22.8 °F 29% 30.00 in 10.0 mi West 10.4 mph 20.7 mph N/A   Scattered Clouds
5:36 PM 52.0 °F - 22.6 °F 32% 30.02 in 10.0 mi West 9.2 mph - N/A   Scattered Clouds
5:56 PM 51.3 °F - 22.8 °F 33% 30.04 in 10.0 mi West 10.4 mph - N/A   Clear
6:16 PM 52.2 °F - 22.6 °F 32% 30.04 in 10.0 mi SW 9.2 mph - N/A   Clear
6:36 PM 51.1 °F - 23.0 °F 33% 30.05 in 10.0 mi SW 5.8 mph - N/A   Clear
6:56 PM 51.6 °F - 23.2 °F 33% 30.05 in 10.0 mi West 9.2 mph 16.1 mph N/A   Clear
7:16 PM 51.3 °F - 23.7 °F 34% 30.05 in 10.0 mi West 12.7 mph - N/A   Clear
7:36 PM 52.2 °F - 23.7 °F 33% 30.05 in 10.0 mi WNW 10.4 mph - N/A   Clear
7:56 PM 54.0 °F - 22.8 °F 30% 30.06 in 10.0 mi West 12.7 mph 18.4 mph N/A   Clear
8:16 PM 53.8 °F - 23.5 °F 31% 30.05 in 10.0 mi West 10.4 mph 26.5 mph N/A   Clear
8:36 PM 51.1 °F - 23.4 °F 34% 30.07 in 10.0 mi WNW 4.6 mph - N/A   Clear
8:56 PM 50.9 °F - 20.1 °F 30% 30.08 in 10.0 mi East 4.6 mph - N/A   Clear
9:16 PM 48.0 °F - 18.5 °F 31% 30.07 in 10.0 mi Calm Calm - N/A   Clear
9:36 PM 44.6 °F 41.4 °F 20.8 °F 39% 30.05 in 10.0 mi SW 5.8 mph - N/A   Clear
9:56 PM 43.0 °F 36.4 °F 21.0 °F 42% 30.07 in 10.0 mi North 12.7 mph - N/A   Clear
10:16 PM 39.2 °F 37.0 °F 21.4 °F 49% 30.09 in 10.0 mi WNW 3.5 mph - N/A   Clear
10:36 PM 38.8 °F - 21.2 °F 49% 30.09 in 10.0 mi Calm Calm - N/A   Clear
10:56 PM 32.7 °F 29.6 °F 19.9 °F 59% 30.09 in 10.0 mi South 3.5 mph - N/A   Clear
11:16 PM 32.9 °F 27.5 °F 20.7 °F 61% 30.09 in 10.0 mi SSW 5.8 mph - N/A   Clear
11:36 PM 29.8 °F 23.9 °F 18.7 °F 63% 30.09 in 10.0 mi NNW 5.8 mph - N/A   Clear
11:56 PM 32.2 °F - 19.9 °F 61% 30.10 in 10.0 mi Calm Calm - N/A   Clear